星链-35885(STARLINK-35885)

导读

STARLINK-35885是美国SpaceX星链互联网星座的组成卫星,于2025年12月04日发射入轨,属于星链低轨卫星互联网项目的一员。该卫星运行在近地轨道,服务全球高速互联网接入,尤其为偏远地区、灾害现场等场景提供通信覆盖,是星链大规模组网部署中新补充的卫星节点。

基本信息
目录编号:
66890
目录名称:
STARLINK-35885
国际标识:
2025-283N
轨道中心:
EARTH
卫星名称:
星链-35885
卫星全名:
星链-35885(STARLINK-35885)
卫星状态:
在轨 (已飞行191 天)
发射日期:
2025-12-04 UTC
国别 :
美国 (US)
星等 :
--
轨道信息
数据来源 国际轨道数据 AOE轨道数据
星历时间 2026-06-12T00:27:46+0800
1天前
查看轨道信息
2026-06-09T08:00:00+0800
4天前
查看轨道信息
半长轴 6840.831km 6840.814km
偏心率 0.0001029 0.0000988
轨道倾角 53.160° 53.159°
近地点辐角 97.069° 71.909°
升交点赤经 306.981° 319.536°
平近点角 263.043° 203.235°
近地点 461.99km 462.001km
远地点 463.398km 463.353km
周期 93.848分钟 93.847分钟
每日圈数 15.344033 15.34409
详细信息
固有亮度:
5
最大亮度:
2.5
卫星平台:
Starlink V1.0
覆盖范围:
全球
运营商:
太空探索技术公司
运营商所在国:
美国
制造商(研发单位):
太空探索技术公司
制造商所在国:
美国
使用方式:
暂无
卫星简介
Starlink 计划是 SpaceX 推出的全球卫星互联网项目,通过发射低轨道卫星,为全球尤其是偏远地区提供高速、低延迟的互联网服务。自 2019 年起,Starlink 已部署数千颗卫星,旨在缩小全球数字鸿沟,推动互联网普及。该项目还为军事、航空等行业提供通信支持,带来广泛经济效益。
2D轨道图
3D轨道图
轨道高度分析图
轨道倾角分析图
轨道综合分析图
查看轨道综合分析图